K7LER Weather Reports


time (UTC)temp
C
wind
direction
speed
KPH
gust
KPH
rain 1hr
cm
rain 24hr
cm
rain mn
cm
humidity
%
barometer
mb
20260504001540 25 0 0.0 0.0 0.00 0.00 0.00 41 1010.1
20260504001033 25 0 0.0 0.0 0.00 0.00 0.00 42 1010.1
20260504000539 24 0 0.0 0.0 0.00 0.00 0.00 41 1010.0
20260504000049 24 0 0.0 0.0 0.00 0.00 0.00 42 1010.1
20260503235535 24 0 0.0 0.0 0.00 0.00 0.00 43 1010.2
20260503235038 23 0 0.0 0.0 0.00 0.00 0.00 43 1010.2
20260503234546 23 0 0.0 0.0 0.00 0.00 0.00 43 1010.3
20260503234039 24 0 0.0 0.0 0.00 0.00 0.00 43 1010.2
20260503233539 24 0 0.0 0.0 0.00 0.00 0.00 43 1010.3
20260503233042 24 0 0.0 0.0 0.00 0.00 0.00 43 1010.4
20260503232538 23 0 0.0 0.0 0.00 0.00 0.00 43 1010.2
20260503232037 23 0 0.0 0.0 0.00 0.00 0.00 43 1010.5
20260503231556 23 0 0.0 0.0 0.00 0.00 0.00 44 1010.3
20260503231038 23 0 0.0 0.0 0.00 0.00 0.00 43 1010.4
20260503230537 24 0 0.0 0.0 0.00 0.00 0.00 43 1010.5
20260503230044 24 0 0.0 0.0 0.00 0.00 0.00 43 1010.5
20260503225537 24 0 0.0 0.0 0.00 0.00 0.00 42 1010.7
20260503225034 24 0 0.0 0.0 0.00 0.00 0.00 40 1010.8
20260503224545 24 0 0.0 0.0 0.00 0.00 0.00 41 1010.9
20260503224034 24 0 0.0 0.0 0.00 0.00 0.00 40 1011.0
20260503223538 23 0 0.0 0.0 0.00 0.00 0.00 42 1011.0
20260503223057 23 0 0.0 0.0 0.00 0.00 0.00 42 1011.2
20260503222537 23 0 0.0 0.0 0.00 0.00 0.00 43 1011.3
20260503222039 23 0 0.0 0.0 0.00 0.00 0.00 43 1011.3
20260503221544 23 0 0.0 0.0 0.00 0.00 0.00 43 1011.3
20260503221038 23 0 0.0 0.0 0.00 0.00 0.00 44 1011.4
20260503220538 23 0 0.0 0.0 0.00 0.00 0.00 45 1011.5
20260503220052 23 0 0.0 0.0 0.00 0.00 0.00 46 1011.5
20260503215535 23 0 0.0 0.0 0.00 0.00 0.00 45 1011.5
20260503215038 23 0 0.0 0.0 0.00 0.00 0.00 44 1011.5
20260503214548 23 0 0.0 0.0 0.00 0.00 0.00 44 1011.5
20260503214036 23 0 0.0 0.0 0.00 0.00 0.00 41 1011.7
20260503213535 22 0 0.0 0.0 0.00 0.00 0.00 41 1011.7
20260503213100 22 0 0.0 0.0 0.00 0.00 0.00 42 1011.7
20260503212538 22 0 0.0 0.0 0.00 0.00 0.00 44 1011.8
20260503212037 22 0 0.0 0.0 0.00 0.00 0.00 44 1011.9
20260503211548 22 0 0.0 0.0 0.00 0.00 0.00 45 1011.9
20260503211038 22 0 0.0 0.0 0.00 0.00 0.00 43 1011.9
20260503210538 22 0 0.0 0.0 0.00 0.00 0.00 44 1012.0
20260503210054 22 0 0.0 0.0 0.00 0.00 0.00 45 1012.0
20260503205538 22 0 0.0 0.0 0.00 0.00 0.00 47 1012.0
20260503205038 22 0 0.0 0.0 0.00 0.00 0.00 46 1012.1
20260503204553 22 0 0.0 0.0 0.00 0.00 0.00 47 1012.2
20260503204036 22 0 0.0 0.0 0.00 0.00 0.00 47 1012.3
20260503203535 22 0 0.0 0.0 0.00 0.00 0.00 47 1012.4
20260503203041 22 0 0.0 0.0 0.00 0.00 0.00 46 1012.3
20260503202535 22 0 0.0 0.0 0.00 0.00 0.00 46 1012.5
20260503202037 22 0 0.0 0.0 0.00 0.00 0.00 45 1012.5
20260503201546 22 0 0.0 0.0 0.00 0.00 0.00 45 1012.5
20260503201035 22 0 0.0 0.0 0.00 0.00 0.00 44 1012.5
20260503200537 22 0 0.0 0.0 0.00 0.00 0.00 46 1012.5
20260503200056 22 0 0.0 0.0 0.00 0.00 0.00 45 1012.5
20260503195538 22 0 0.0 0.0 0.00 0.00 0.00 46 1012.7
20260503195035 21 0 0.0 0.0 0.00 0.00 0.00 47 1012.7
20260503194546 21 0 0.0 0.0 0.00 0.00 0.00 47 1012.8
20260503194038 22 0 0.0 0.0 0.00 0.00 0.00 47 1012.8
20260503193538 22 0 0.0 0.0 0.00 0.00 0.00 47 1012.8
20260503193054 22 0 0.0 0.0 0.00 0.00 0.00 47 1012.9
20260503192536 21 0 0.0 0.0 0.00 0.00 0.00 49 1012.9
20260503192036 21 0 0.0 0.0 0.00 0.00 0.00 48 1013.0
20260503191542 21 0 0.0 0.0 0.00 0.00 0.00 50 1013.0
20260503191034 21 0 0.0 0.0 0.00 0.00 0.00 51 1013.1
20260503190535 21 0 0.0 0.0 0.00 0.00 0.00 51 1013.1
20260503190049 21 0 0.0 0.0 0.00 0.00 0.00 52 1013.2
20260503185535 21 0 0.0 0.0 0.00 0.00 0.00 52 1013.2
20260503185036 20 0 0.0 0.0 0.00 0.00 0.00 52 1013.3
20260503184557 20 0 0.0 0.0 0.00 0.00 0.00 53 1013.3
20260503184036 20 0 0.0 0.0 0.00 0.00 0.00 53 1013.4
20260503183534 20 0 0.0 0.0 0.00 0.00 0.00 54 1013.5
20260503183100 20 0 0.0 0.0 0.00 0.00 0.00 55 1013.6
20260503182534 20 0 0.0 0.0 0.00 0.00 0.00 55 1013.7
20260503182033 19 0 0.0 0.0 0.00 0.00 0.00 55 1013.6
20260503181544 19 0 0.0 0.0 0.00 0.00 0.00 55 1013.6
20260503181034 19 0 0.0 0.0 0.00 0.00 0.00 55 1013.6
20260503180534 19 0 0.0 0.0 0.00 0.00 0.00 56 1013.7
20260503180046 19 0 0.0 0.0 0.00 0.00 0.00 57 1013.6
20260503175535 18 0 0.0 0.0 0.00 0.00 0.00 58 1013.6
20260503175037 18 0 0.0 0.0 0.00 0.00 0.00 59 1013.7
20260503174540 18 0 0.0 0.0 0.00 0.00 0.00 61 1013.6
20260503174035 18 0 0.0 0.0 0.00 0.00 0.00 61 1013.8
20260503173536 18 0 0.0 0.0 0.00 0.00 0.00 62 1013.8
20260503173110 18 0 0.0 0.0 0.00 0.00 0.00 62 1013.8
20260503172535 -17 0.0 0.0 0.00 0.00 0.00 1013.8
20260503172034 -17 0.0 0.0 0.00 0.00 0.00 1013.7
20260503171545 -17 0.0 0.0 0.00 0.00 0.00 1013.7
20260503171034 -17 0.0 0.0 0.00 0.00 0.00 1013.8
20260503170534 -17 0.0 0.0 0.00 0.00 0.00 1013.8
20260503150534 -17 0.0 0.0 0.00 0.00 0.00 1013.9
20260503131034 -17 0.0 0.0 0.00 0.00 0.00 1013.8
20260503130534 -17 0.0 0.0 0.00 0.00 0.00 1013.8
20260503110533 -17 0.0 0.0 0.00 0.00 0.00 1013.9
20260503081543 -17 0.0 0.0 0.00 0.00 0.00 1014.2
20260503081035 -17 0.0 0.0 0.00 0.00 0.00 1014.2
20260503080538 -17 0.0 0.0 0.00 0.00 0.00 1014.0
20260503072537 -17 0.0 0.0 0.00 0.00 0.00 1013.8
20260503072038 -17 0.0 0.0 0.00 0.00 0.00 1014.0
20260503071544 -17 0.0 0.0 0.00 0.00 0.00 1014.0
20260503071033 -17 0.0 0.0 0.00 0.00 0.00 1014.0
20260503070537 -17 0.0 0.0 0.00 0.00 0.00 1014.0
20260503055034 -17 0.0 0.0 0.00 0.00 0.00 1013.9
20260503054548 -17 0.0 0.0 0.00 0.00 0.00 1013.9
20260503054037 -17 0.0 0.0 0.00 0.00 0.00 1013.9
20260503053538 -17 0.0 0.0 0.00 0.00 0.00 1014.0
20260503053042 -17 0.0 0.0 0.00 0.00 0.00 1014.1
20260503052534 -17 0.0 0.0 0.00 0.00 0.00 1014.1
20260503052038 -17 0.0 0.0 0.00 0.00 0.00 1014.0
20260503051551 -17 0.0 0.0 0.00 0.00 0.00 1013.9
20260503051037 -17 0.0 0.0 0.00 0.00 0.00 1014.0
20260503050535 -17 0.0 0.0 0.00 0.00 0.00 1014.0
20260503050049 -17 0.0 0.0 0.00 0.00 0.00 1014.0
20260503045538 -17 0.0 0.0 0.00 0.00 0.00 1014.0
20260503045036 -17 0.0 0.0 0.00 0.00 0.00 1013.9
20260503044544 -17 0.0 0.0 0.00 0.00 0.00 1013.9
20260503044035 -17 0.0 0.0 0.00 0.00 0.00 1013.9
20260503043535 -17 0.0 0.0 0.00 0.00 0.00 1013.9
20260503043044 -17 0.0 0.0 0.00 0.00 0.00 1013.8
20260503042537 -17 0.0 0.0 0.00 0.00 0.00 1013.8
20260503042038 -17 0.0 0.0 0.00 0.00 0.00 1013.7
20260503041603 -17 0.0 0.0 0.00 0.00 0.00 1013.7
20260503041036 -17 0.0 0.0 0.00 0.00 0.00 1013.7
20260503040534 -17 0.0 0.0 0.00 0.00 0.00 1013.6
20260503040058 -17 0.0 0.0 0.00 0.00 0.00 1013.5
20260503035533 -17 0.0 0.0 0.00 0.00 0.00 1013.5
20260503035033 -17 0.0 0.0 0.00 0.00 0.00 1013.4
20260503034602 -17 0.0 0.0 0.00 0.00 0.00 1013.3
20260503034034 -17 0.0 0.0 0.00 0.00 0.00 1013.3
20260503033533 -17 0.0 0.0 0.00 0.00 0.00 1013.1
20260503033047 -17 0.0 0.0 0.00 0.00 0.00 1013.2
20260503032533 -17 0.0 0.0 0.00 0.00 0.00 1013.1
20260503032033 -17 0.0 0.0 0.00 0.00 0.00 1013.1
20260503031544 -17 0.0 0.0 0.00 0.00 0.00 1013.0
20260503031034 -17 0.0 0.0 0.00 0.00 0.00 1012.9
20260503030534 -17 0.0 0.0 0.00 0.00 0.00 1012.9
20260503030051 20 0.0 0.0 0.00 0.00 0.00 49 1012.9
20260503025533 20 0.0 0.0 0.00 0.00 0.00 49 1012.8
20260503025033 20 0 0.0 0.0 0.00 0.00 0.00 49 1012.8
20260503024543 20 0 0.0 0.0 0.00 0.00 0.00 49 1012.9
20260503024036 20 0 0.0 0.0 0.00 0.00 0.00 50 1012.8
20260503023536 20 0 0.0 0.0 0.00 0.00 0.00 50 1012.8
20260503023049 20 0 0.0 0.0 0.00 0.00 0.00 50 1012.8
20260503022533 20 0 0.0 0.0 0.00 0.00 0.00 50 1012.8
20260503022034 20 0 0.0 0.0 0.00 0.00 0.00 50 1012.8
20260503021545 20 0 0.0 0.0 0.00 0.00 0.00 49 1012.6
20260503021034 21 0 0.0 0.0 0.00 0.00 0.00 49 1012.8
20260503020533 21 0 0.0 0.0 0.00 0.00 0.00 49 1012.8
20260503020043 21 0 0.0 0.0 0.00 0.00 0.00 48 1012.8
20260503015534 21 0 0.0 0.0 0.00 0.00 0.00 48 1012.8
20260503015034 21 0 0.0 0.0 0.00 0.00 0.00 48 1012.7
20260503014547 21 0 0.0 0.0 0.00 0.00 0.00 48 1012.8
20260503014033 21 0 0.0 0.0 0.00 0.00 0.00 47 1012.8
20260503013534 21 0 0.0 0.0 0.00 0.00 0.00 47 1012.9
20260503013041 21 0 0.0 0.0 0.00 0.00 0.00 48 1012.9
20260503012535 21 0 0.0 0.0 0.00 0.00 0.00 48 1012.8
20260503012034 21 0 0.0 0.0 0.00 0.00 0.00 47 1012.9
20260503011545 21 0 0.0 0.0 0.00 0.00 0.00 47 1012.9
20260503011035 21 0 0.0 0.0 0.00 0.00 0.00 47 1012.9
20260503010533 21 0 0.0 0.0 0.00 0.00 0.00 47 1012.9
20260503010040 21 0 0.0 0.0 0.00 0.00 0.00 48 1012.9
20260503005533 21 0 0.0 0.0 0.00 0.00 0.00 49 1013.0
20260503005033 21 0 0.0 0.0 0.00 0.00 0.00 49 1013.0
20260503004542 21 0 0.0 0.0 0.00 0.00 0.00 50 1013.0
20260503004034 21 0 0.0 0.0 0.00 0.00 0.00 51 1013.1
20260503003533 21 0 0.0 0.0 0.00 0.00 0.00 50 1013.0
20260503003043 21 0 0.0 0.0 0.00 0.00 0.00 49 1012.9
20260503002533 21 0 0.0 0.0 0.00 0.00 0.00 49 1013.0
20260503002035 21 0 0.0 0.0 0.00 0.00 0.00 50 1013.0